"read_dt","SO2 (ppb)","flags","PMT voltage (V)","lamp voltage (V)","lamp intensity (Hz)","internal temp (C)","react chamber temp (C)","sample flow (l/min)","pres (mmHg)","SO2 bkg (ppb)","SO2 coefficient"
2014-09-06 00:00:00,1829E-3,5C000000,-0724,0827,12225,026.7,045.5,0.476,726.7,01.19,0.508
2014-09-06 00:01:00,1761E-3,5C000000,-0724,0826,12394,026.7,045.4,0.476,726.7,01.19,0.508
2014-09-06 00:02:00,1770E-3,5C000000,-0724,0827,12224,026.7,045.5,0.476,726.5,01.19,0.508
2014-09-06 00:03:00,1708E-3,5C000000,-0724,0826,12347,026.7,045.4,0.475,726.6,01.19,0.508
2014-09-06 00:04:00,1809E-3,5C000000,-0724,0826,12284,026.7,045.4,0.476,726.6,01.19,0.508
2014-09-06 00:05:00,1680E-3,5C000000,-0724,0827,12188,026.7,045.4,0.476,726.6,01.19,0.508
2014-09-06 00:06:00,1858E-3,5C000000,-0724,0827,12205,026.7,045.4,0.476,726.6,01.19,0.508
2014-09-06 00:07:00,1805E-3,5C000000,-0724,0826,12219,026.7,045.4,0.476,726.5,01.19,0.508
2014-09-06 00:08:00,1832E-3,5C000000,-0724,0827,12141,026.7,045.4,0.476,726.5,01.19,0.508
2014-09-06 00:09:00,1782E-3,5C000000,-0724,0827,12141,026.7,045.4,0.475,726.6,01.19,0.508
2014-09-06 00:10:00,1895E-3,5C000000,-0724,0827,12142,026.7,045.5,0.476,726.6,01.19,0.508
2014-09-06 00:11:00,1833E-3,5C000000,-0724,0827,12033,026.7,045.5,0.476,726.7,01.19,0.508
2014-09-06 00:12:00,1873E-3,5C000000,-0724,0827,12285,026.7,045.4,0.476,726.7,01.19,0.508
2014-09-06 00:13:00,1796E-3,5C000000,-0724,0826,12278,026.7,045.4,0.476,726.7,01.19,0.508
2014-09-06 00:14:00,1888E-3,5C000000,-0724,0826,12269,026.7,045.4,0.476,726.7,01.19,0.508
2014-09-06 00:15:00,1641E-3,5C000000,-0724,0827,12385,026.7,045.4,0.476,726.8,01.19,0.508
2014-09-06 00:16:00,1749E-3,5C000000,-0724,0827,12082,026.7,045.4,0.476,726.7,01.19,0.508
2014-09-06 00:17:00,1772E-3,5C000000,-0724,0828,12168,026.7,045.4,0.475,726.7,01.19,0.508
2014-09-06 00:18:00,1946E-3,5C000000,-0724,0827,11990,026.7,045.4,0.476,726.7,01.19,0.508
2014-09-06 00:19:00,1853E-3,5C000000,-0724,0827,12351,026.7,045.4,0.476,726.7,01.19,0.508
2014-09-06 00:20:00,1751E-3,5C000000,-0724,0828,12239,026.7,045.4,0.475,726.8,01.19,0.508
2014-09-06 00:21:00,1758E-3,5C000000,-0724,0827,12239,026.7,045.4,0.476,726.7,01.19,0.508
2014-09-06 00:22:00,1705E-3,5C000000,-0724,0827,12293,026.7,045.4,0.476,726.8,01.19,0.508
2014-09-06 00:23:00,1821E-3,5C000000,-0724,0827,12208,026.7,045.4,0.476,726.8,01.19,0.508
2014-09-06 00:24:00,1822E-3,5C000000,-0724,0826,12207,026.7,045.4,0.476,726.8,01.19,0.508
2014-09-06 00:25:00,1839E-3,5C000000,-0724,0827,12195,026.7,045.5,0.476,726.8,01.19,0.508
2014-09-06 00:26:00,1723E-3,5C000000,-0724,0826,12161,026.7,045.4,0.476,726.7,01.19,0.508
2014-09-06 00:27:00,1741E-3,5C000000,-0724,0826,12260,026.7,045.4,0.476,726.8,01.19,0.508
2014-09-06 00:28:00,1876E-3,5C000000,-0724,0827,12242,026.7,045.4,0.476,726.8,01.19,0.508
2014-09-06 00:29:00,1800E-3,5C000000,-0724,0827,12231,026.7,045.4,0.476,726.6,01.19,0.508
2014-09-06 00:30:00,1685E-3,5C000000,-0724,0827,12286,026.7,045.4,0.476,726.7,01.19,0.508
2014-09-06 00:31:00,1765E-3,5C000000,-0724,0827,12263,026.7,045.4,0.476,726.6,01.19,0.508
2014-09-06 00:32:00,1794E-3,5C000000,-0724,0826,12319,026.7,045.4,0.476,726.6,01.19,0.508
2014-09-06 00:33:00,1743E-3,5C000000,-0724,0826,12213,026.7,045.4,0.476,726.6,01.19,0.508
2014-09-06 00:34:00,1746E-3,5C000000,-0724,0827,12280,026.7,045.5,0.476,726.7,01.19,0.508
2014-09-06 00:35:00,1736E-3,5C000000,-0724,0828,12246,026.7,045.4,0.476,726.7,01.19,0.508
2014-09-06 00:36:00,1638E-3,5C000000,-0724,0826,12431,026.7,045.4,0.475,726.7,01.19,0.508
2014-09-06 00:37:00,1839E-3,5C000000,-0724,0827,12072,026.7,045.4,0.476,726.6,01.19,0.508
2014-09-06 00:38:00,1787E-3,5C000000,-0724,0826,12286,026.7,045.4,0.476,726.6,01.19,0.508
2014-09-06 00:39:00,1802E-3,5C000000,-0724,0827,12240,026.7,045.4,0.475,726.6,01.19,0.508
2014-09-06 00:40:00,1772E-3,5C000000,-0724,0826,12047,026.7,045.4,0.476,726.6,01.19,0.508
2014-09-06 00:41:00,1817E-3,5C000000,-0724,0827,12389,026.7,045.4,0.476,726.8,01.19,0.508
2014-09-06 00:42:00,1754E-3,5C000000,-0724,0827,12326,026.7,045.4,0.476,726.9,01.19,0.508
2014-09-06 00:43:00,1896E-3,5C000000,-0724,0826,12306,026.7,045.4,0.476,726.8,01.19,0.508
2014-09-06 00:44:00,1746E-3,5C000000,-0724,0827,12108,026.7,045.4,0.476,726.8,01.19,0.508
2014-09-06 00:45:00,1703E-3,5C000000,-0724,0826,12055,026.7,045.5,0.476,726.8,01.19,0.508
2014-09-06 00:46:00,1855E-3,5C000000,-0724,0826,12065,026.7,045.5,0.476,726.8,01.19,0.508
2014-09-06 00:47:00,1678E-3,5C000000,-0724,0826,12165,026.7,045.4,0.475,726.8,01.19,0.508
2014-09-06 00:48:00,1759E-3,5C000000,-0724,0826,12260,026.7,045.5,0.476,726.7,01.19,0.508
2014-09-06 00:49:00,1789E-3,5C000000,-0724,0826,12263,026.7,045.4,0.476,726.8,01.19,0.508
2014-09-06 00:50:00,1622E-3,5C000000,-0724,0826,12194,026.7,045.4,0.475,726.7,01.19,0.508
2014-09-06 00:51:00,1852E-3,5C000000,-0724,0827,12102,026.7,045.4,0.476,726.8,01.19,0.508
2014-09-06 00:52:00,1769E-3,5C000000,-0724,0828,12207,026.8,045.4,0.476,726.7,01.19,0.508
2014-09-06 00:53:00,1788E-3,5C000000,-0724,0827,12218,026.8,045.4,0.475,726.7,01.19,0.508
2014-09-06 00:54:00,1939E-3,5C000000,-0724,0826,12343,026.7,045.4,0.476,726.7,01.19,0.508
2014-09-06 00:55:00,1839E-3,5C000000,-0724,0826,12342,026.8,045.4,0.476,726.6,01.19,0.508
2014-09-06 00:56:00,1715E-3,5C000000,-0724,0826,12171,026.8,045.4,0.475,726.7,01.19,0.508
2014-09-06 00:57:00,1869E-3,5C000000,-0724,0826,12159,026.8,045.4,0.476,726.6,01.19,0.508
2014-09-06 00:58:00,1762E-3,5C000000,-0724,0827,12116,026.8,045.4,0.475,726.7,01.19,0.508
2014-09-06 00:59:00,1786E-3,5C000000,-0724,0827,12380,026.8,045.5,0.476,726.6,01.19,0.508
2014-09-06 01:00:00,1824E-3,5C000000,-0724,0827,12390,026.8,045.5,0.476,726.5,01.19,0.508
2014-09-06 01:01:00,1798E-3,5C000000,-0724,0827,12284,026.8,045.5,0.475,726.7,01.19,0.508
2014-09-06 01:02:00,1806E-3,5C000000,-0724,0826,12196,026.8,045.4,0.476,726.5,01.19,0.508
2014-09-06 01:03:00,1686E-3,5C000000,-0724,0827,12193,026.8,045.5,0.476,726.5,01.19,0.508
2014-09-06 01:04:00,1826E-3,5C000000,-0724,0826,12192,026.8,045.4,0.475,726.5,01.19,0.508
2014-09-06 01:05:00,1821E-3,5C000000,-0724,0826,12234,026.8,045.4,0.476,726.4,01.19,0.508
2014-09-06 01:06:00,1843E-3,5C000000,-0724,0826,12317,026.8,045.4,0.476,726.4,01.19,0.508
2014-09-06 01:07:00,1735E-3,5C000000,-0724,0827,12282,026.8,045.4,0.475,726.4,01.19,0.508
2014-09-06 01:08:00,1815E-3,5C000000,-0724,0826,12066,026.8,045.4,0.476,726.5,01.19,0.508
2014-09-06 01:09:00,1869E-3,5C000000,-0724,0826,12297,026.8,045.4,0.475,726.4,01.19,0.508
2014-09-06 01:10:00,1831E-3,5C000000,-0724,0827,12299,026.8,045.4,0.475,726.5,01.19,0.508
2014-09-06 01:11:00,1763E-3,5C000000,-0724,0826,11932,026.8,045.4,0.476,726.4,01.19,0.508
2014-09-06 01:12:00,1794E-3,5C000000,-0724,0827,12194,026.8,045.5,0.475,726.5,01.19,0.508
2014-09-06 01:13:00,1835E-3,5C000000,-0724,0826,12288,026.9,045.4,0.476,726.4,01.19,0.508
2014-09-06 01:14:00,1832E-3,5C000000,-0724,0827,12238,026.8,045.4,0.476,726.5,01.19,0.508
2014-09-06 01:15:00,1856E-3,5C000000,-0724,0826,12305,026.9,045.4,0.475,726.3,01.19,0.508
2014-09-06 01:16:00,1939E-3,5C000000,-0724,0827,12289,026.9,045.4,0.476,726.3,01.19,0.508
2014-09-06 01:17:00,1845E-3,5C000000,-0724,0827,12258,026.9,045.4,0.475,726.4,01.19,0.508
2014-09-06 01:18:00,1723E-3,5C000000,-0724,0827,12179,026.9,045.4,0.475,726.4,01.19,0.508
2014-09-06 01:19:00,1828E-3,5C000000,-0724,0827,12133,026.9,045.4,0.476,726.4,01.19,0.508
2014-09-06 01:20:00,1831E-3,5C000000,-0724,0826,12213,026.9,045.5,0.475,726.3,01.19,0.508
2014-09-06 01:21:00,1815E-3,5C000000,-0724,0827,12277,026.9,045.4,0.475,726.2,01.19,0.508
2014-09-06 01:22:00,1854E-3,5C000000,-0724,0826,12199,026.9,045.5,0.476,726.3,01.19,0.508
2014-09-06 01:23:00,1649E-3,5C000000,-0724,0828,12321,026.9,045.4,0.475,726.4,01.19,0.508
2014-09-06 01:24:00,1851E-3,5C000000,-0724,0826,12349,026.9,045.4,0.475,726.4,01.19,0.508
2014-09-06 01:25:00,1752E-3,5C000000,-0724,0827,12270,026.9,045.4,0.476,726.4,01.19,0.508
2014-09-06 01:26:00,1820E-3,5C000000,-0724,0827,12215,027.0,045.4,0.475,726.2,01.19,0.508
2014-09-06 01:27:00,1641E-3,5C000000,-0724,0827,12331,026.9,045.4,0.475,726.4,01.19,0.508
2014-09-06 01:28:00,1654E-3,5C000000,-0724,0826,12352,026.9,045.4,0.475,726.5,01.19,0.508
2014-09-06 01:29:00,1802E-3,5C000000,-0724,0827,12344,026.9,045.4,0.475,726.3,01.19,0.508
2014-09-06 01:30:00,1749E-3,5C000000,-0724,0826,12105,026.9,045.4,0.476,726.4,01.19,0.508
2014-09-06 01:31:00,1836E-3,5C000000,-0724,0827,12372,027.0,045.4,0.475,726.4,01.19,0.508
2014-09-06 01:32:00,1792E-3,5C000000,-0724,0826,12174,027.0,045.4,0.475,726.4,01.19,0.508
2014-09-06 01:33:00,1728E-3,5C000000,-0724,0827,12176,027.0,045.4,0.476,726.5,01.19,0.508
2014-09-06 01:34:00,1719E-3,5C000000,-0724,0827,12259,027.0,045.4,0.475,726.5,01.19,0.508
2014-09-06 01:35:00,1747E-3,5C000000,-0724,0826,12111,027.0,045.4,0.475,726.5,01.19,0.508
2014-09-06 01:36:00,1806E-3,5C000000,-0724,0827,12314,027.0,045.4,0.476,726.5,01.19,0.508
2014-09-06 01:37:00,1757E-3,5C000000,-0724,0828,12356,027.0,045.4,0.475,726.5,01.19,0.508
2014-09-06 01:38:00,1734E-3,5C000000,-0724,0827,12195,027.0,045.4,0.475,726.5,01.19,0.508
2014-09-06 01:39:00,1851E-3,5C000000,-0724,0827,12322,027.0,045.4,0.476,726.4,01.19,0.508
2014-09-06 01:40:00,1841E-3,5C000000,-0724,0827,12069,027.0,045.4,0.475,726.6,01.19,0.508
2014-09-06 01:41:00,1903E-3,5C000000,-0724,0827,12326,027.0,045.4,0.475,726.5,01.19,0.508
2014-09-06 01:42:00,1649E-3,5C000000,-0724,0827,12335,027.0,045.4,0.475,726.7,01.19,0.508
2014-09-06 01:43:00,1745E-3,5C000000,-0724,0826,12132,027.1,045.4,0.475,726.7,01.19,0.508
2014-09-06 01:44:00,1836E-3,5C000000,-0724,0827,12313,027.1,045.4,0.475,726.5,01.19,0.508
2014-09-06 01:45:00,1812E-3,5C000000,-0724,0827,12027,027.1,045.4,0.475,726.6,01.19,0.508
2014-09-06 01:46:00,1777E-3,5C000000,-0724,0826,12021,027.1,045.4,0.476,726.6,01.19,0.508
2014-09-06 01:47:00,1932E-3,5C000000,-0724,0827,12239,027.1,045.5,0.475,726.7,01.19,0.508
2014-09-06 01:48:00,1809E-3,5C000000,-0724,0826,12267,027.1,045.5,0.475,726.8,01.19,0.508
2014-09-06 01:49:00,1809E-3,5C000000,-0724,0827,12218,027.1,045.5,0.475,726.7,01.19,0.508
2014-09-06 01:50:00,1942E-3,5C000000,-0724,0826,12137,027.1,045.4,0.475,726.8,01.19,0.508
2014-09-06 01:51:00,1897E-3,5C000000,-0724,0827,12343,027.1,045.4,0.475,726.8,01.19,0.508
2014-09-06 01:52:00,1763E-3,5C000000,-0724,0826,12273,027.1,045.5,0.475,726.9,01.19,0.508
2014-09-06 01:53:00,1817E-3,5C000000,-0724,0826,12184,027.1,045.5,0.476,726.7,01.19,0.508
2014-09-06 01:54:00,1802E-3,5C000000,-0724,0827,12161,027.1,045.5,0.475,726.9,01.19,0.508
2014-09-06 01:55:00,1832E-3,5C000000,-0724,0827,12237,027.1,045.5,0.475,726.9,01.19,0.508
2014-09-06 01:56:00,1867E-3,5C000000,-0724,0828,12144,027.1,045.5,0.475,726.9,01.19,0.508
2014-09-06 01:57:00,1754E-3,5C000000,-0724,0826,12243,027.1,045.4,0.475,726.9,01.19,0.508
2014-09-06 01:58:00,1817E-3,5C000000,-0724,0828,12243,027.1,045.4,0.475,726.8,01.19,0.508
2014-09-06 01:59:00,1866E-3,5C000000,-0724,0827,12376,027.2,045.4,0.475,726.8,01.19,0.508
2014-09-06 02:00:00,1835E-3,5C000000,-0724,0828,12239,027.2,045.4,0.475,726.7,01.19,0.508
2014-09-06 02:01:00,1811E-3,5C000000,-0724,0827,12172,027.2,045.4,0.475,726.8,01.19,0.508
2014-09-06 02:02:00,1813E-3,5C000000,-0724,0826,12102,027.2,045.4,0.475,726.7,01.19,0.508
2014-09-06 02:03:00,1799E-3,5C000000,-0724,0827,12355,027.2,045.4,0.475,726.7,01.19,0.508
2014-09-06 02:04:00,1758E-3,5C000000,-0724,0827,12297,027.2,045.5,0.475,726.8,01.19,0.508
2014-09-06 02:05:00,1768E-3,5C000000,-0724,0827,12442,027.2,045.5,0.475,726.7,01.19,0.508
2014-09-06 02:06:00,1778E-3,5C000000,-0724,0826,12071,027.2,045.4,0.475,726.7,01.19,0.508
2014-09-06 02:07:00,1776E-3,5C000000,-0724,0827,12220,027.2,045.5,0.475,726.6,01.19,0.508
2014-09-06 02:08:00,1813E-3,5C000000,-0724,0827,12269,027.2,045.5,0.475,726.6,01.19,0.508
2014-09-06 02:09:00,1966E-3,5C000000,-0724,0828,12176,027.2,045.5,0.475,726.5,01.19,0.508
2014-09-06 02:10:00,1823E-3,5C000000,-0724,0826,12200,027.2,045.5,0.475,726.5,01.19,0.508
2014-09-06 02:11:00,1643E-3,5C000000,-0724,0827,12335,027.2,045.4,0.475,726.5,01.19,0.508
2014-09-06 02:12:00,1806E-3,5C000000,-0724,0828,12466,027.2,045.4,0.475,726.5,01.19,0.508
2014-09-06 02:13:00,1839E-3,5C000000,-0724,0826,12329,027.2,045.4,0.475,726.6,01.19,0.508
2014-09-06 02:14:00,1738E-3,5C000000,-0724,0826,12334,027.2,045.4,0.475,726.5,01.19,0.508
2014-09-06 02:15:00,1827E-3,5C000000,-0724,0827,12288,027.3,045.4,0.475,726.5,01.19,0.508
2014-09-06 02:16:00,1686E-3,5C000000,-0724,0827,12273,027.3,045.4,0.475,726.4,01.19,0.508
2014-09-06 02:17:00,1671E-3,5C000000,-0724,0827,12185,027.3,045.4,0.475,726.4,01.19,0.508
2014-09-06 02:18:00,1744E-3,5C000000,-0724,0826,12092,027.3,045.4,0.475,726.3,01.19,0.508
2014-09-06 02:19:00,1725E-3,5C000000,-0724,0827,12328,027.3,045.4,0.475,726.4,01.19,0.508
2014-09-06 02:20:00,1840E-3,5C000000,-0724,0827,12204,027.3,045.4,0.475,726.2,01.19,0.508
2014-09-06 02:21:00,1774E-3,5C000000,-0724,0826,12275,027.3,045.5,0.475,726.4,01.19,0.508
2014-09-06 02:22:00,1799E-3,5C000000,-0724,0827,12326,027.3,045.5,0.474,726.3,01.19,0.508
2014-09-06 02:23:00,1838E-3,5C000000,-0724,0827,12276,027.3,045.5,0.475,726.3,01.19,0.508
2014-09-06 02:24:00,1747E-3,5C000000,-0724,0827,12281,027.3,045.4,0.475,726.3,01.19,0.508
2014-09-06 02:25:00,1721E-3,5C000000,-0724,0827,12251,027.3,045.4,0.475,726.4,01.19,0.508
2014-09-06 02:26:00,1871E-3,5C000000,-0724,0827,12155,027.3,045.4,0.475,726.4,01.19,0.508
2014-09-06 02:27:00,1810E-3,5C000000,-0724,0827,12279,027.3,045.4,0.474,726.3,01.19,0.508
2014-09-06 02:28:00,1796E-3,5C000000,-0724,0827,11940,027.3,045.4,0.475,726.4,01.19,0.508
2014-09-06 02:29:00,1777E-3,5C000000,-0724,0827,12187,027.3,045.5,0.475,726.5,01.19,0.508
2014-09-06 02:30:00,1830E-3,5C000000,-0724,0826,12290,027.3,045.5,0.475,726.3,01.19,0.508
2014-09-06 02:31:00,1909E-3,5C000000,-0724,0826,12352,027.3,045.4,0.475,726.4,01.19,0.508
2014-09-06 02:32:00,1848E-3,5C000000,-0724,0826,12243,027.3,045.5,0.474,726.3,01.19,0.508
2014-09-06 02:33:00,1826E-3,5C000000,-0724,0827,12275,027.3,045.5,0.475,726.4,01.19,0.508
2014-09-06 02:34:00,1767E-3,5C000000,-0724,0827,12085,027.4,045.5,0.475,726.3,01.19,0.508
2014-09-06 02:35:00,1819E-3,5C000000,-0724,0827,11977,027.4,045.5,0.475,726.2,01.19,0.508
2014-09-06 02:36:00,1786E-3,5C000000,-0724,0827,12128,027.4,045.5,0.475,726.4,01.19,0.508
2014-09-06 02:37:00,1759E-3,5C000000,-0724,0827,12177,027.4,045.4,0.474,726.3,01.19,0.508
2014-09-06 02:38:00,1683E-3,5C000000,-0724,0826,12353,027.4,045.4,0.475,726.2,01.19,0.508
2014-09-06 02:39:00,1866E-3,5C000000,-0724,0827,12047,027.4,045.4,0.475,726.4,01.19,0.508
2014-09-06 02:40:00,1853E-3,5C000000,-0724,0827,12397,027.4,045.4,0.475,726.3,01.19,0.508
2014-09-06 02:41:00,1795E-3,5C000000,-0724,0827,12062,027.4,045.4,0.475,726.2,01.19,0.508
2014-09-06 02:42:00,1829E-3,5C000000,-0724,0827,12053,027.4,045.5,0.474,726.4,01.19,0.508
2014-09-06 02:43:00,1840E-3,5C000000,-0724,0826,12103,027.4,045.5,0.475,726.5,01.19,0.508
2014-09-06 02:44:00,1731E-3,5C000000,-0724,0827,12155,027.4,045.4,0.475,726.4,01.19,0.508
2014-09-06 02:45:00,1854E-3,5C000000,-0724,0828,12138,027.4,045.4,0.475,726.4,01.19,0.508
2014-09-06 02:46:00,1772E-3,5C000000,-0724,0826,12251,027.5,045.4,0.475,726.3,01.19,0.508
2014-09-06 02:47:00,1719E-3,5C000000,-0724,0826,12266,027.4,045.5,0.474,726.4,01.19,0.508
2014-09-06 02:48:00,1661E-3,5C000000,-0724,0826,12247,027.5,045.5,0.474,726.5,01.19,0.508
2014-09-06 02:49:00,1866E-3,5C000000,-0724,0827,12350,027.5,045.4,0.475,726.5,01.19,0.508
2014-09-06 02:50:00,1733E-3,5C000000,-0724,0827,12023,027.5,045.5,0.475,726.5,01.19,0.508
2014-09-06 02:51:00,1807E-3,5C000000,-0724,0827,12300,027.5,045.5,0.475,726.6,01.19,0.508
2014-09-06 02:52:00,1737E-3,5C000000,-0724,0827,12145,027.5,045.5,0.475,726.5,01.19,0.508
2014-09-06 02:53:00,1826E-3,5C000000,-0724,0826,12194,027.5,045.5,0.474,726.5,01.19,0.508
2014-09-06 02:54:00,1871E-3,5C000000,-0724,0826,12320,027.5,045.4,0.474,726.6,01.19,0.508
2014-09-06 02:55:00,1952E-3,5C000000,-0724,0826,12304,027.5,045.4,0.475,726.5,01.19,0.508
2014-09-06 02:56:00,1683E-3,5C000000,-0724,0828,12207,027.5,045.5,0.475,726.6,01.19,0.508
2014-09-06 02:57:00,1855E-3,5C000000,-0724,0827,12204,027.5,045.5,0.475,726.6,01.19,0.508
2014-09-06 02:58:00,1731E-3,5C000000,-0724,0826,12241,027.5,045.5,0.475,726.6,01.19,0.508
2014-09-06 02:59:00,1740E-3,5C000000,-0724,0826,12156,027.5,045.5,0.474,726.6,01.19,0.508
2014-09-06 03:00:00,1820E-3,5C000000,-0724,0827,12067,027.5,045.4,0.474,726.6,01.19,0.508
2014-09-06 03:01:00,1783E-3,5C000000,-0724,0828,12194,027.5,045.5,0.474,726.7,01.19,0.508
2014-09-06 03:02:00,1717E-3,5C000000,-0724,0827,12430,027.5,045.5,0.475,726.7,01.19,0.508
2014-09-06 03:03:00,1692E-3,5C000000,-0724,0827,12090,027.6,045.5,0.475,726.4,01.19,0.508
2014-09-06 03:04:00,1793E-3,5C000000,-0724,0828,12299,027.6,045.5,0.475,726.7,01.19,0.508
2014-09-06 03:05:00,1796E-3,5C000000,-0724,0827,12235,027.6,045.5,0.475,726.5,01.19,0.508
2014-09-06 03:06:00,1864E-3,5C000000,-0724,0827,12285,027.6,045.4,0.475,726.6,01.19,0.508
2014-09-06 03:07:00,1734E-3,5C000000,-0724,0826,12179,027.6,045.5,0.474,726.5,01.19,0.508
2014-09-06 03:08:00,1768E-3,5C000000,-0724,0827,12438,027.6,045.5,0.474,726.7,01.19,0.508
2014-09-06 03:09:00,1791E-3,5C000000,-0724,0827,12270,027.6,045.5,0.474,726.7,01.19,0.508
2014-09-06 03:10:00,1816E-3,5C000000,-0724,0827,12153,027.6,045.5,0.474,726.7,01.19,0.508
2014-09-06 03:11:00,1641E-3,5C000000,-0724,0827,12288,027.6,045.5,0.474,726.8,01.19,0.508
2014-09-06 03:12:00,1872E-3,5C000000,-0724,0827,12220,027.6,045.5,0.475,726.8,01.19,0.508
2014-09-06 03:13:00,1835E-3,5C000000,-0724,0826,12167,027.6,045.5,0.475,726.7,01.19,0.508
2014-09-06 03:14:00,1768E-3,5C000000,-0724,0826,12339,027.7,045.5,0.475,726.7,01.19,0.508
2014-09-06 03:15:00,1763E-3,5C000000,-0724,0825,12295,027.7,045.5,0.475,726.7,01.19,0.508
2014-09-06 03:16:00,1988E-3,5C000000,-0724,0827,12265,027.7,045.5,0.475,726.5,01.19,0.508
2014-09-06 03:17:00,1808E-3,5C000000,-0724,0826,12154,027.7,045.5,0.474,726.8,01.19,0.508
2014-09-06 03:18:00,1830E-3,5C000000,-0724,0827,12152,027.7,045.5,0.474,726.8,01.19,0.508
2014-09-06 03:19:00,1805E-3,5C000000,-0724,0827,12241,027.7,045.5,0.474,726.7,01.19,0.508
2014-09-06 03:20:00,1791E-3,5C000000,-0724,0828,12317,027.7,045.5,0.474,726.9,01.19,0.508
2014-09-06 03:21:00,1833E-3,5C000000,-0724,0828,12231,027.7,045.5,0.474,726.7,01.19,0.508
2014-09-06 03:22:00,1771E-3,5C000000,-0724,0826,12203,027.7,045.5,0.474,726.7,01.19,0.508
2014-09-06 03:23:00,1740E-3,5C000000,-0724,0827,12276,027.7,045.5,0.474,726.7,01.19,0.508
2014-09-06 03:24:00,1823E-3,5C000000,-0724,0827,12238,027.7,045.5,0.475,726.8,01.19,0.508
2014-09-06 03:25:00,1853E-3,5C000000,-0724,0827,12321,027.8,045.5,0.475,726.8,01.19,0.508
2014-09-06 03:26:00,1874E-3,5C000000,-0724,0828,12267,027.8,045.5,0.475,726.7,01.19,0.508
2014-09-06 03:27:00,1781E-3,5C000000,-0724,0827,12238,027.8,045.5,0.474,726.4,01.19,0.508
2014-09-06 03:28:00,1879E-3,5C000000,-0724,0827,12220,027.8,045.5,0.475,726.8,01.19,0.508
2014-09-06 03:29:00,1742E-3,5C000000,-0724,0827,12165,027.8,045.5,0.475,726.9,01.19,0.508
2014-09-06 03:30:00,1822E-3,5C000000,-0724,0826,12211,027.8,045.5,0.474,726.9,01.19,0.508
2014-09-06 03:31:00,1784E-3,5C000000,-0724,0827,12263,027.8,045.5,0.474,726.7,01.19,0.508
2014-09-06 03:32:00,1801E-3,5C000000,-0724,0826,12311,027.8,045.5,0.474,726.8,01.19,0.508
2014-09-06 03:33:00,1909E-3,5C000000,-0724,0826,12250,027.8,045.5,0.474,726.7,01.19,0.508
2014-09-06 03:34:00,1773E-3,5C000000,-0724,0827,12275,027.8,045.5,0.474,726.7,01.19,0.508
2014-09-06 03:35:00,1731E-3,5C000000,-0724,0826,12095,027.8,045.5,0.474,726.7,01.19,0.508
2014-09-06 03:36:00,1835E-3,5C000000,-0724,0827,12278,027.8,045.5,0.474,726.7,01.19,0.508
2014-09-06 03:37:00,1951E-3,5C000000,-0724,0827,12329,027.8,045.5,0.474,726.6,01.19,0.508
2014-09-06 03:38:00,1598E-3,5C000000,-0724,0827,12241,027.8,045.5,0.474,726.6,01.19,0.508
2014-09-06 03:39:00,1761E-3,5C000000,-0724,0826,12164,027.8,045.5,0.474,726.6,01.19,0.508
2014-09-06 03:40:00,1784E-3,5C000000,-0724,0827,12238,027.8,045.5,0.474,726.6,01.19,0.508
2014-09-06 03:41:00,1810E-3,5C000000,-0724,0827,12294,027.8,045.5,0.474,726.6,01.19,0.508
2014-09-06 03:42:00,1944E-3,5C000000,-0724,0826,12159,027.9,045.5,0.474,726.7,01.19,0.508
2014-09-06 03:43:00,1730E-3,5C000000,-0724,0827,12143,027.8,045.5,0.474,726.6,01.19,0.508
2014-09-06 03:44:00,1672E-3,5C000000,-0724,0827,12284,027.9,045.5,0.474,726.7,01.19,0.508
2014-09-06 03:45:00,1837E-3,5C000000,-0724,0827,12359,027.9,045.5,0.474,726.6,01.19,0.508
2014-09-06 03:46:00,1867E-3,5C000000,-0724,0827,12176,027.9,045.5,0.474,726.5,01.19,0.508
2014-09-06 03:47:00,1774E-3,5C000000,-0724,0828,12217,027.9,045.5,0.474,726.4,01.19,0.508
2014-09-06 03:48:00,1788E-3,5C000000,-0724,0826,12100,027.9,045.5,0.474,726.6,01.19,0.508
2014-09-06 03:49:00,1986E-3,5C000000,-0724,0826,12256,027.9,045.5,0.474,726.4,01.19,0.508
2014-09-06 03:50:00,1819E-3,5C000000,-0724,0827,12389,027.9,045.5,0.474,726.5,01.19,0.508
2014-09-06 03:51:00,1724E-3,5C000000,-0724,0826,12135,027.9,045.5,0.474,726.5,01.19,0.508
2014-09-06 03:52:00,1665E-3,5C000000,-0724,0828,12288,027.9,045.5,0.474,726.5,01.19,0.508
2014-09-06 03:53:00,1715E-3,5C000000,-0724,0826,12258,027.9,045.5,0.474,726.5,01.19,0.508
2014-09-06 03:54:00,1732E-3,5C000000,-0724,0826,12320,027.9,045.4,0.474,726.5,01.19,0.508
2014-09-06 03:55:00,1724E-3,5C000000,-0724,0827,12122,027.9,045.5,0.474,726.5,01.19,0.508
2014-09-06 03:56:00,1811E-3,5C000000,-0724,0827,12334,027.9,045.5,0.474,726.5,01.19,0.508
2014-09-06 03:57:00,1702E-3,5C000000,-0724,0827,12257,027.9,045.5,0.474,726.5,01.19,0.508
2014-09-06 03:58:00,1763E-3,5C000000,-0724,0827,12385,027.9,045.5,0.474,726.4,01.19,0.508
2014-09-06 03:59:00,1688E-3,5C000000,-0724,0827,12169,027.9,045.5,0.474,726.5,01.19,0.508
2014-09-06 04:00:00,1825E-3,5C000000,-0724,0827,12276,027.9,045.5,0.474,726.5,01.19,0.508
2014-09-06 04:01:00,1811E-3,5C000000,-0724,0827,12241,027.9,045.5,0.474,726.5,01.19,0.508
2014-09-06 04:02:00,1809E-3,5C000000,-0724,0827,12329,027.9,045.5,0.474,726.6,01.19,0.508
2014-09-06 04:03:00,1741E-3,5C000000,-0724,0828,12271,027.9,045.5,0.474,726.6,01.19,0.508
2014-09-06 04:04:00,1827E-3,5C000000,-0724,0827,12189,027.9,045.5,0.474,726.6,01.19,0.508
2014-09-06 04:05:00,1847E-3,5C000000,-0724,0827,12207,027.9,045.5,0.474,726.7,01.19,0.508
2014-09-06 04:06:00,1831E-3,5C000000,-0724,0827,12375,027.9,045.5,0.474,726.7,01.19,0.508
2014-09-06 04:07:00,1771E-3,5C000000,-0724,0827,12150,027.9,045.5,0.474,726.6,01.19,0.508
2014-09-06 04:08:00,1876E-3,5C000000,-0724,0827,12197,027.9,045.5,0.474,726.7,01.19,0.508
2014-09-06 04:09:00,1704E-3,5C000000,-0724,0826,12360,027.9,045.5,0.474,726.7,01.19,0.508
2014-09-06 04:10:00,1879E-3,5C000000,-0724,0826,12390,027.9,045.5,0.474,726.6,01.19,0.508
2014-09-06 04:11:00,1713E-3,5C000000,-0724,0827,12112,027.9,045.5,0.474,726.7,01.19,0.508
2014-09-06 04:12:00,1753E-3,5C000000,-0724,0826,12334,027.9,045.4,0.474,726.7,01.19,0.508
2014-09-06 04:13:00,1845E-3,5C000000,-0724,0828,12205,027.9,045.4,0.474,726.6,01.19,0.508
2014-09-06 04:14:00,1762E-3,5C000000,-0724,0827,12130,027.9,045.5,0.474,726.7,01.19,0.508
2014-09-06 04:15:00,1894E-3,5C000000,-0724,0827,12183,027.9,045.5,0.474,726.8,01.19,0.508
2014-09-06 04:16:00,1725E-3,5C000000,-0724,0826,12275,027.9,045.5,0.474,726.6,01.19,0.508
2014-09-06 04:17:00,1695E-3,5C000000,-0724,0827,12326,027.9,045.5,0.474,726.8,01.19,0.508
2014-09-06 04:18:00,1682E-3,5C000000,-0724,0827,12293,027.9,045.5,0.474,726.8,01.19,0.508
2014-09-06 04:19:00,1663E-3,5C000000,-0724,0826,12228,027.9,045.5,0.474,726.8,01.19,0.508
2014-09-06 04:20:00,1703E-3,5C000000,-0724,0828,12264,027.9,045.5,0.474,726.7,01.19,0.508